Location: La Table
(45.4742°N, 6.1678°E)
Time: 22:41:27
(UTC+02:00)

ISS - Visible Passes

Search period start: 23 July 2021 00:00
Search period end: 02 August 2021 00:00
Orbit: 419 x 421 km, 51.6° (Epoch: 23 July)

Date Brightness Start Highest point End Pass type
(mag) Time Alt. Az. Time Alt. Az. Time Alt. Az.
23 Jul -1.0 01:30:05 10° WNW 01:30:35 13° WNW 01:30:35 13° WNW visible
23 Jul -2.1 23:05:57 10° NW 23:09:02 32° NNE 23:11:44 12° ENE visible
24 Jul -2.2 00:42:44 10° WNW 00:44:40 32° WNW 00:44:40 32° WNW visible
24 Jul -1.9 22:18:35 10° NW 22:21:35 29° N 22:24:35 10° ENE visible
24 Jul -3.6 23:55:25 10° WNW 23:58:48 69° NNE 23:58:48 69° NNE visible
25 Jul -3.0 23:08:08 10° NW 23:11:27 49° NNE 23:12:58 27° E visible
26 Jul -1.2 00:45:08 10° WNW 00:45:55 15° W 00:45:55 15° W visible
26 Jul -2.6 22:20:50 10° NW 22:24:02 38° NNE 22:27:10 10° E visible
26 Jul -2.7 23:57:40 10° WNW 00:00:06 39° W 00:00:06 39° W visible
27 Jul -3.9 23:10:17 10° WNW 23:13:39 79° SSW 23:14:21 53° SE visible
28 Jul -3.6 22:22:57 10° WNW 22:26:19 70° NNE 22:28:36 19° ESE visible
29 Jul -1.4 00:00:18 10° W 00:01:33 16° WSW 00:01:33 16° WSW visible
29 Jul -2.7 23:12:37 10° WNW 23:15:39 31° SW 23:15:52 31° SSW visible
30 Jul -3.3 22:25:07 10° WNW 22:28:23 49° SW 22:30:13 23° SSE visible
31 Jul -3.7 21:37:42 10° WNW 21:41:05 78° SSW 21:44:26 10° SE visible
31 Jul -1.3 23:15:56 10° WSW 23:17:24 12° SW 23:17:34 12° SW visible
01 Aug -1.7 22:27:43 10° W 22:30:14 20° SW 22:32:01 14° S visible
